DECAYED

STARLINK-32266, 60369 (Decayed)

Orbit data source: Space-Track

STARLINK-32266, 60369 was a payload satellite owned by SpaceX/Seattle (US) in LEO that was launched on Sun, 04 Aug 2024 UTC via an FALCON 9 launch vehicle from the Air Force Western Test Range (AFWTR). Payload-class satellites include a variety of spacecraft equipped with specific instruments for various scientific and technological missions. These include communications satellites like Starlink; space stations such as the ISS; scientific satellites like the Hubble; Earth observation satellites from companies like Planet Labs, Umbra, and HawkEye 360; GPS; miniature CubeSats for education and research; and military/defense satellites.

Not visible in the next 10 days
Identifier
60369, 2024-138Q
Orbit
Decayed
Country
Flag of USUS
Related business
Manufacturer
SpaceX/Seattle
Mission
Decayed Commercial Communications
Bus & Motor
STARLINK V2M, Unknown motor
Mass
730 kg wet, ~700 kg dry
Launch date (UTC)
2024-08-04 (2 years ago)
Launch vehicle
FALCON 9
Launch site
Air Force Western Test Range (AFWTR)
Object type
Payload
Rocket body
Debris
Shape & HBR
Box + 2 Pan, 17.7 m
Radar Cross Section
33.884 m², Large (>1 m²)

Expand to show TLE details & history
Last TLE update: 7 months ago

TLE from 7 months ago
0 STARLINK-32266
1 60369U 24138Q   26053.24719660  .11345096  11853-4  39761-2 0  9992
2 60369  53.1160 345.7193 0005322 152.5790 207.5532 16.24438573 88750
Epoch: 2026-02-22T05:55Z
TLE epoch observation values (Epoch: 2026-02-22T05:55:57.786Z)
Latitude
-0.00006°
Longitude
104.57031°
Altitude
211.567 km
Speed
7.779 km/s
True Right ascension
23h 02m 52s
True Declination
0° 00' 00"
Sunlit
Object was in daylight at epoch
Visualization orbit readout
Latitude
Unknown
Longitude
Unknown
Altitude
Unknown
Speed
Unknown
Apparent Right ascension
Unknown
Apparent Declination
Unknown
Sunlit
N/A
Visualization observer readout
Local Sidereal Time
08:41:53
Azimuth
Unknown
Elevation
Unknown
Doppler factor
Unknown
Orbital elements
Apogee altitude
211.307 km
Perigee altitude
204.297 km
Semi-major axis
6,585.939 km
Eccentricity
0.00053
Inclination
53.116°
RAAN
345.7193°
Arg. of periapsis
152.579°
True anomaly
207.52501°
Mean anomaly
207.5532°
Eccentric anomaly
207.5391°
Mean motion
4.06085 °/min
Orbital period
88.65 mins
BSTAR
0.0039761
Loading maneuver chart data...
Computing Atmospheric mass density...
Loading historical data...
Loading historical data...
Loading historical data...
Loading historical data...
Loading historical data...
Loading historical data...
Loading historical data...

Documentation

Showing up to 5 results
|